Погода в Волчихе

Погода в Волчихе : погода сейчас, прогноз погоды и архив. Всё, что Вы хотите узнать о погоде в Волчихе!

Хотите узнать прогноз погоды в Волчихе? Тогда Вам сюда: Погода в Волчихе

Поиск расширенной информации на нашем сайте:

Другие новости

Новости СМИ2

Главная страница сайта

Новости сайта

03.07.2017

Напоминаем, что на нашем специализированном сайте Метеоцентр.Азия вы можете получить высокодетализированные автоматические прогнозы погоды по пунктам России, СНГ и мира в авиационном формате (включающие направление и скорость ветра, видимость, явления погоды, количество и форму облачности, нижнюю и верхнюю границу облачности).


Погода в Волчихе - сегодня

Время (UTC), дата Ветер
(°,м/с) 
Видим.   Явления Облачность Т
(°С)
Тd
(°С)
f(%) Тe
(°С)
Pmin
(гПа)
dP
(гПа)
Po
(мм)
O2
(г/м3)
Тmin Tmax R s Состояние
почвы
21 17.08.17 010 (С) 20000 м    ясно 
+7.4 +6.7 95 +8  1016.1  -0.8  743  290           
00 18.08.17 тихо ()   20000 м    8/0 средняя, верхняя 
[Ac As|Ci]
+7.4 +6.8 96 +7  1016.2  0.1  743  290  +6.8        сухая 
03 18.08.17 260 (З) 20000 м    9/0 средняя, верхняя 
[Ac As|Ci fib]
+18.3 +9.7 57 +20  1015.3  743  279           
06 18.08.17 320 (СЗ) 20000 м    10/0 средняя 
[Ac und]
+18.7 +12.8 69 +24  1015.7  0.4  744  278           
09 18.08.17 310 (СЗ) 20000 м  {ливн. осадки}  8/4 1000 м средняя, верхняя 
[Sc|Ac cast|Ci fib]
+20.1 +13.3 65 +26  1014.9  -0.6  743  276           
12 18.08.17 360 (С) 20000 м  {ливн. осадки}  9/4 600 м средняя, верхняя 
[Cu Sc|Ac cast|Ci fib]
+19.6 +12.8 65 +25  1015.4  0.4  743  277    +22.1  0.3     
15 18.08.17 360 (С) 1{10}  20000 м    6/3 600 м средняя, верхняя 
[Sc diur, vesp|Ac cast|Ci fib]
+14.6 +12.3 86 +21  1017.2  1.3  744  282           
18 18.08.17 320 (СЗ) 20000 м  {ливн. осадки}  ясно 
+13.1 +12.4 96 +19  1017.8  0.5  745  284           
21 18.08.17 350 (С) 2000 м  дымка  ясно 
+11.7 +11.4 98 +14  1018.1  0.2  745  286           
00 19.08.17 340 (С) 4000 м  дымка  3/1 1000 м средняя 
[Cu med, cong|Ac cast]
+7.6 +7.3 98 +9  1019.4  0.9  746  291  +7.6    0.6    влажная 
03 19.08.17 350 (С) 20000 м    8/3 1000 м средняя, верхняя 
[Cu hum|Ac lent|Ci fib]
+15.4 +11.9 80 +20  1019.7  746  282           
06 19.08.17 350 (С) 6-10{13}  20000 м  в посл. час ливневой дождь  8/4 1000 м кучево-дожд., средняя 
[Cb cap|Ac As]
+15.3 +10.3 72 +17  1020  0.3  747  283           
09 19.08.17 340 (С) 4{10}  20000 м  {ливн. осадки}  8/4 1000 м кучево-дожд., верхняя 
[Cb cap|Ci ing]
+18.1 +8.2 52 +18  1019.6  -0.2  746  281           
12 19.08.17 330 (СЗ) 2{10}  20000 м  {ливн. осадки}  6/3 1000 м средняя, верхняя 
[Cu hum|Ac lent|Ci fib]
+17.8 +8.2 53 +19  1020.5  0.8  747  281    +18.5     
15 19.08.17 280 (З) 20000 м    ясно 
+10.9 +9.1 89 +12  1022.1  748  288           
18 19.08.17 тихо ()   20000 м    ясно 
+6.4 +5.9 97 +6  1022.9  0.4  748  294           
21 19.08.17 тихо ()   20000 м    ясно 
+4.8 +4.5 98 +5  1023.1  748  295           
00 20.08.17 тихо ()   20000 м    8/0 средняя, верхняя 
[Ac lent|Cc]
+5.2 +4.9 98 +5  1023.3  0.2  748  295  +4.5        влажная 
03 20.08.17 тихо ()   20000 м    10/0 средняя 
[Ac und]
+16.2 +9.6 65 +17  1022.9  0.6  749  283           
06 20.08.17 330 (СЗ) 20000 м    10/4 600 м средняя 
[Cu med, cong|Ac und]
+17.5 +7.8 53 +18  1022.5  0.6  749  282           
09 20.08.17 010 (С) 20000 м    9/8 1000 м средняя 
[Cu med, cong|Ac As]
+18.9 +6.7 45 +19  1021.3  -1.1  748  281           
12 20.08.17 020 (С) 3{10}  20000 м    6/3 600 м средняя 
[Cu med, cong|Ac cuf]
+19 +8.3 50 +20  1021.4  0.1  748  280    +20.7       
15 20.08.17 тихо ()   20000 м    3/0 верхняя 
[Ci fib]
+11.2 +9.4 89 +12  1023  0.9  748  288           
18 20.08.17 010 (С) н/о    н/о 
+7.1 +6.6 97 +7  1023.5  0.1  749  293           
21 20.08.17 050 (СВ) 20000 м    ясно 
+5.5 +5.1 97 +6  1023.2  -0.3  748  295           
Время (UTC), дата Ветер
(°,м/с) 
Видим.   Явления Облачность Т
(°С)
Тd
(°С)
f(%) Тe
(°С)
Pmin
(гПа)
dP
(гПа)
Po
(мм)
O2
(г/м3)
Тmin Tmax R s Состояние
почвы

Для получения пояснительной информации подведите курсор к названию столбца.

ПОГОДА в Волчихе - архив

Всё, что Вы хотите узнать о погоде в Волчихе - удобно и подробно!

Выберите нужную дату (начиная с 1 января 2015* года) и нажмите кнопку "Найти".
Будут отображены архивные сводки погоды по пункту Волчиха, начиная с указанной даты.


Отображать данные в формате CSV (для использования в таблицах Excel)


Внимание! Наш архив погоды предназначен исключительно для личного некоммерческого использования в познавательных целях. Если Вам необходимы официальные справки о состоянии погоды (для производственных, юридических, коммерческих и т.п. целей), обращайтесь в органы Росгидромета.

*Примечание: данная дата относится к архиву по метеостанциям СССР (Россия, СНГ, Балтия).
Архив по метеостанциям Зарубежной Европы и Азии (кроме Китая) хранится 10 дней, по другим регионам земного шара (Китай, Африка, Америка, Австралия, Океания) - 1 день.

Волчиха - район местоположения метеостанции


Название, широта, долгота, высота метеостанции:
Волчиха 52°ш. 80.4°д. 208 м над ур. моря [Российская Федерация]

Дополнительная информация

В oтличие oт бoльшинства пoгoдных сайтoв мы публикуем пoдрoбную метеoинфoрмацию в детальнoм прoфессиoнальнoм фoрмате.

Характеристики температуры и влажнoсти вoздуха измеряются на высoте 2 м в тени вдали oт зданий и деревьев.
Скoрoсть ветра измеряется на высoте 10 м (на урoвне рoста челoвека скoрoсть ветра ниже в 1.5-2 раза). Если метеoстанция нахoдится в гoрoде или в лесу, тo скoрoсть ветра занижена на 2-4 м/с пo сравнению с oткрытым местoм. Скoрoсть ветра над акватoриями крупных рек и oзёр, а также на вершинах хoлмoв на 2-5 м/с выше, чем в oбычных услoвиях.
Атмoсфернoе давление в разных тoчках местнoсти мoжет значительнo oтличаться oт давления на метеoстанции, в зависимoсти oт услoвий рельефа (при пoдъёме на 10 м давление пoнижается примернo на 1 мм рт.ст.).